Location: Mittersill
(44.1801°N, 71.7142°W)
Time: 03:23:24
(UTC+00:00)

Cosmos 2360 Rocket - Pass Details

Date: 10 September 2024
Orbit: 835 x 842 km, 71.0° (Epoch: 04 October)

Event Time Altitude Azimuth Distance (km) Brightness Sun altitude
Rises 23:21:54 0° 212° (SSW) 3,381 5.7 -3.7°
Reaches altitude 10° 23:24:21 10° 216° (SW) 2,450 5.0 -4.2°
Maximum altitude 23:29:56 65° 298° (WNW) 920 2.8 -5.1°
Drops below altitude 10° 23:35:33 10° 20° (NNE) 2,460 4.6 -6.1°
Sets 23:38:02 0° 24° (NNE) 3,397 5.2 -6.6°
